This demonstration page uses our WeatherBlox Daily Observations layout. Learn more.

Left ArrowRight Arrow

39.51506, -84.39828

Hourly Observations for November 12, 2020

Temp ( °F °C ) Dew Point ( °F °C ) Humidity (%) Winds ( mph kmh ) Pressure ( in mb ) Visibility ( mi km ) Precip ( " mm )
12:15 am 00:15 Clear 35 1.8 33 0.8 93 93 Calm 30.18 1022 10 16.0934 0 0
12:35 am 00:35 Clear 35 1.5 33 0.6 94 94 Calm 30.18 1022 10 16.0934 0 0
12:55 am 00:55 Clear 34 1.3 33 0.8 97 97 Calm 30.18 1022 10 16.0934 0 0
1:15 am 01:15 Clear 33 0.6 32 0.2 97 97 Calm 30.19 1022 7 11.26538 0 0
1:35 am 01:35 Clear 33 0.7 33 0.4 98 98 Calm 30.19 1022 7 11.26538 0 0
1:55 am 01:55 Clear with Mist and Fog 33 0.5 33 0.3 99 99 Calm 30.19 1022 7 11.26538 0 0
2:15 am 02:15 Clear with Mist and Fog 33 0.4 32 0.2 99 99 Calm 30.19 1022 7 11.26538 0 0
2:35 am 02:35 Clear with Mist and Fog 33 0.3 32 0.2 99 99 Calm 30.2 1023 5 8.0467 0 0
2:55 am 02:55 Clear with Mist and Fog 32 0 32 -0.1 99 99 Calm 30.21 1023 4 6.43736 0 0
3:15 am 03:15 Clear with Mist and Fog 32 0 32 0 100 100 Calm 30.21 1023 3.5 5.63269 0 0
3:35 am 03:35 Clear with Mist and Fog 32 0 N/A N/A Calm 30.22 1023 4 6.43736 0 0
3:55 am 03:55 Clear with Mist and Fog 31 -0.8 31 -0.8 100 100 Calm 30.22 1023 4 6.43736 0 0
4:15 am 04:15 Clear with Mist and Fog 31 -0.3 31 -0.3 100 100 Calm 30.22 1023 4 6.43736 0 0
4:35 am 04:35 Clear with Mist and Fog 31 -0.4 31 -0.5 99 99 Calm 30.22 1023 4 6.43736 0 0
4:55 am 04:55 Clear with Mist and Fog 31 -0.3 31 -0.6 98 98 Calm 30.21 1023 4 6.43736 0 0
5:15 am 05:15 Clear with Mist and Fog 32 -0.2 31 -0.5 98 98 ENE 5 7 30.22 1023 5 8.0467 0 0
5:35 am 05:35 Clear with Mist and Fog 32 -0.2 31 -0.6 97 97 E 6 9 30.23 1024 4 6.43736 0 0
5:55 am 05:55 Clear with Mist and Fog 32 -0.2 31 -0.6 97 97 E 5 7 30.23 1024 4 6.43736 0 0
6:15 am 06:15 Clear with Mist and Fog 31 -0.4 31 -0.8 97 97 ENE 3 6 30.23 1024 4 6.43736 0 0
6:35 am 06:35 Clear with Mist and Fog 31 -0.6 30 -0.9 98 98 Calm 30.23 1024 4 6.43736 0 0
6:55 am 06:55 Clear with Mist and Fog 31 -0.5 30 -0.9 97 97 Calm 30.24 1024 4 6.43736 0 0
7:15 am 07:15 Clear with Mist and Fog 31 -0.6 30 -1 97 97 Calm 30.24 1024 2.5 4.02335 0 0
7:35 am 07:35 Sunny with Mist and Fog 31 -0.5 31 -0.8 98 98 ENE 5 7 30.24 1024 3 4.82802 0 0
7:55 am 07:55 Sunny with Mist and Fog 32 0 31 -0.5 96 96 ENE 5 7 30.25 1024 3.5 5.63269 0 0
8:15 am 08:15 Sunny with Mist and Fog 33 0.6 32 -0.2 94 94 ENE 6 9 30.23 1024 4 6.43736 0 0
8:35 am 08:35 Sunny with Mist and Fog 34 1.2 32 0.2 93 93 ENE 6 9 30.24 1024 4 6.43736 0 0
8:55 am 08:55 Sunny with Mist and Fog 36 2.1 33 0.7 91 91 ENE 8 13 30.24 1024 5 8.0467 0 0
9:15 am 09:15 Sunny 38 3.1 34 1.2 88 88 E 9 15 30.24 1024 7 11.26538 0 0
9:35 am 09:35 Sunny 38 3.5 34 1.1 84 84 E 7 11 30.24 1024 7 11.26538 0 0
9:55 am 09:55 Sunny 40 4.7 35 1.4 79 79 ESE 7 11 30.22 1023 10 16.0934 0 0
10:15 am 10:15 Sunny 42 5.5 34 1 73 73 ESE 12 19 30.22 1023 10 16.0934 0 0
10:35 am 10:35 Sunny 43 6.3 34 1.1 70 70 ESE 9 15 30.21 1023 10 16.0934 0 0
10:55 am 10:55 Sunny 44 6.4 34 1 69 69 ESE 8 13 30.21 1023 10 16.0934 0 0
11:15 am 11:15 Sunny 44 6.9 35 1.5 69 69 ESE 5 7 30.2 1023 10 16.0934 0 0
11:35 am 11:35 Sunny 46 7.6 35 1.7 67 67 E 6 9 30.19 1022 10 16.0934 0 0
11:55 am 11:55 Sunny 48 8.9 36 2.2 63 63 ESE 6 9 30.18 1022 10 16.0934 0 0
12:15 pm 12:15 Sunny 48 9 35 1.9 61 61 SE 5 7 30.16 1021 10 16.0934 0 0
12:35 pm 12:35 Sunny 49 9.4 36 2.2 61 61 Calm 30.14 1021 10 16.0934 0 0
12:55 pm 12:55 Sunny 50 9.8 36 2 59 59 E 5 7 30.14 1021 10 16.0934 0 0
1:15 pm 13:15 Sunny 50 10 35 1.9 57 57 Calm 30.14 1021 10 16.0934 0 0
1:35 pm 13:35 Sunny 51 10.3 35 1.7 56 56 Calm 30.13 1020 10 16.0934 0 0
1:55 pm 13:55 Sunny 52 11.2 36 2.2 54 54 ESE 3 6 30.12 1020 10 16.0934 0 0
2:15 pm 14:15 Sunny 52 11 34 1.3 52 52 Calm 30.1 1019 10 16.0934 0 0
2:35 pm 14:35 Sunny 52 11.2 34 1.2 50 50 ESE 5 7 30.1 1019 10 16.0934 0 0
2:55 pm 14:55 Sunny 52 11.3 34 1.1 50 50 Calm 30.1 1019 10 16.0934 0 0
3:15 pm 15:15 Sunny 52 11.3 34 1.1 50 50 Calm 30.09 1019 10 16.0934 0 0
3:35 pm 15:35 Sunny 53 11.5 34 1.2 49 49 Calm 30.09 1019 10 16.0934 0 0
3:55 pm 15:55 Sunny 53 11.5 34 1.2 49 49 E 3 6 30.08 1018 10 16.0934 0 0
4:15 pm 16:15 Sunny 53 11.6 34 0.9 48 48 Calm 30.08 1019 10 16.0934 0 0
4:35 pm 16:35 Sunny 52 11.3 34 1.1 50 50 Calm 30.08 1018 10 16.0934 0 0
4:55 pm 16:55 Sunny 51 10.7 34 0.9 51 51 Calm 30.08 1019 10 16.0934 0 0
5:15 pm 17:15 Sunny 51 10.4 34 0.9 52 52 Calm 30.08 1019 10 16.0934 0 0
5:35 pm 17:35 Clear 48 9 36 2.3 63 63 Calm 30.08 1019 10 16.0934 0 0
5:55 pm 17:55 Clear 43 6.2 37 2.8 79 79 Calm 30.09 1019 10 16.0934 0 0
6:15 pm 18:15 Clear 42 5.8 38 3.3 84 84 Calm 30.09 1019 10 16.0934 0 0
6:35 pm 18:35 Clear 41 5 35 1.9 81 81 NE 5 7 30.1 1019 10 16.0934 0 0
6:55 pm 18:55 Clear 40 4.6 35 1.8 82 82 Calm 30.1 1019 10 16.0934 0 0
7:15 pm 19:15 Clear 39 3.9 35 1.5 85 85 Calm 30.11 1020 10 16.0934 0 0
7:35 pm 19:35 Clear 38 3.6 34 1.3 85 85 ENE 3 6 30.11 1019 10 16.0934 0 0
7:55 pm 19:55 Clear 37 2.7 34 1 89 89 Calm 30.11 1020 10 16.0934 0 0
8:15 pm 20:15 Clear 36 2.3 33 0.7 89 89 Calm 30.11 1020 10 16.0934 0 0
8:35 pm 20:35 Clear 36 2.4 34 1 91 91 Calm 30.12 1020 10 16.0934 0 0
8:55 pm 20:55 Clear 37 2.5 34 1.1 91 91 Calm 30.11 1020 10 16.0934 0 0
9:15 pm 21:15 Clear 35 1.8 33 0.7 93 93 Calm 30.1 1019 10 16.0934 0 0
9:35 pm 21:35 Clear 34 1.2 33 0.6 96 96 Calm 30.09 1019 10 16.0934 0 0
9:55 pm 21:55 Clear 35 1.5 34 1.2 98 98 Calm 30.09 1019 10 16.0934 0 0
10:15 pm 22:15 Clear 34 0.9 33 0.8 99 99 Calm 30.08 1019 10 16.0934 0 0
10:35 pm 22:35 Clear 34 0.9 33 0.7 99 99 Calm 30.07 1018 10 16.0934 0 0
10:55 pm 22:55 Clear 33 0.6 33 0.3 98 98 Calm 30.07 1018 10 16.0934 0 0
11:15 pm 23:15 Clear 33 0.3 32 0 98 98 Calm 30.07 1018 10 16.0934 0 0
11:35 pm 23:35 Clear 33 0.3 32 0 98 98 Calm 30.06 1018 10 16.0934 0 0
11:55 pm 23:55 Clear 32 0.1 32 0 99 99 Calm 30.06 1018 10 16.0934 0 0

Powered by AerisWeather